Regional Weather Roundup
Issued by NWS

Home | Current Version | Previous Version | Text Only | Print | Product List | Glossary On
Versions: 1 2 3 4 5 6 7 8 9 10 11 12 13 14 15 16 17 18 19 20 21 22 23 24 25 26 27
000
ASPQ40 PGUM 121112
RWRPQ
WEATHER ROUNDUP FOR THE MARIANAS AND MICRONESIA
NATIONAL WEATHER SERVICE TIYAN GU
900 PM CHST TUE DEC 12 2017

GUZ001>004-121200-
MARIANA ISLANDS-

CITY           SKY/WX    TMP DP  RH WIND       PRES   REMARKS
GUAM AIRPORT   PTCLDY    81  79  94 E9        29.88R
ANDERSEN AFB   PTCLDY    81  73  78 E9        29.88R
ROTA AIRPORT   NOT AVBL
TINIAN AP      NOT AVBL
SAIPAN AP      PTCLDY    81  77  89 E8        29.88R

$$

PMZ161-121200-
REPUBLIC OF PALAU-

CITY           SKY/WX    TMP DP  RH WIND       PRES   REMARKS
KOROR AP       CLOUDY    79  75  89 W6        29.75R
KOROR WSO      MOCLDY    81  77  89 NW5       29.76R

$$

PMZ171>174-121200-
FEDERATED STATES OF MICRONESIA-

CITY           SKY/WX    TMP DP  RH WIND       PRES   REMARKS
YAP AIRPORT    MOCLDY    82  77  83 VRB5      29.77R HX  91
CHUUK AP       MOCLDY    84  79  84 VRB6      29.76R HX  96
POHNPEI AP     NOT AVBL
POHNPEI WSO    MOCLDY    81  75  83 E9        29.80S
KOSRAE AP      NOT AVBL

$$

PMZ181-121200-
REPUBLIC OF THE MARSHALL ISLANDS-

CITY           SKY/WX    TMP DP  RH WIND       PRES   REMARKS
KWAJALEIN AP   PTCLDY    82  73  74 E20       29.81F
MAJURO AP      NOT AVBL
MAJURO WSO     LGT RAIN  79  77  94 E9        29.80S

$$





USA.gov is the U.S. government's official web portal to all federal, state and local government web resources and services.